Date,TemperatureHighF,TemperatureAvgF,TemperatureLowF,DewpointHighF,DewpointAvgF,DewpointLowF,HumidityHigh,HumidityAvg,HumidityLow,PressureMaxIn,PressureMinIn,WindSpeedMaxMPH,WindSpeedAvgMPH,GustSpeedMaxMPH,PrecipitationSumIn
2013-1-1,57.1,40.5,30.8,37.5,31.6,27.1,96,74,32,30.30,30.22,8,1,15,0.00
2013-1-2,55.7,38.0,27.5,37.8,30.6,25.5,93,77,46,30.27,30.17,3,1,8,0.01
2013-1-3,56.1,37.3,27.0,39.7,32.0,25.4,96,83,49,30.31,30.20,3,0,8,0.00
2013-1-4,33.3,33.2,33.2,31.8,31.7,31.7,94,94,94,30.30,30.30,0,0,1,0.00
2013-1-5,32.7,32.6,32.5,31.2,31.1,31.0,94,94,94,30.27,30.26,0,0,0,0.00
2013-1-7,60.7,46.7,36.5,50.1,42.8,34.9,96,87,66,30.30,30.19,4,1,9,0.01
2013-1-8,59.4,44.3,34.9,50.4,41.4,33.9,97,90,71,30.29,30.17,2,0,7,0.01
2013-1-9,51.5,43.2,37.8,49.0,40.1,34.4,97,89,72,30.19,30.00,9,1,27,0.02
2013-1-10,50.7,40.6,30.5,36.5,32.5,29.2,96,74,50,30.20,30.10,10,3,18,0.00
2013-1-11,53.0,41.6,34.7,41.1,33.8,29.7,91,74,54,30.27,30.13,7,2,16,0.00
2013-1-12,51.6,39.8,28.5,33.3,28.4,24.1,88,65,39,30.27,30.16,7,1,14,0.00
2013-1-13,53.8,36.5,22.7,34.9,23.4,10.0,90,64,23,30.29,30.20,7,1,18,0.00
2013-1-14,57.0,41.8,29.4,29.6,20.4,9.0,87,46,25,30.41,30.25,14,2,24,0.00
2013-1-15,52.5,36.2,26.9,34.3,29.3,24.9,94,78,49,30.51,30.42,4,0,10,0.00
2013-1-16,58.5,38.4,26.5,39.0,31.7,25.0,95,79,45,30.47,30.29,3,0,6,0.00
2013-1-17,60.8,40.0,27.5,42.6,33.7,26.1,96,81,47,30.30,30.18,3,0,7,0.01
2013-1-18,57.0,36.6,29.3,39.5,31.9,27.5,94,85,52,30.26,30.20,3,0,7,0.00
2013-1-30,66.4,48.4,36.6,48.5,41.5,35.0,96,79,49,30.36,30.27,3,0,7,0.00
2013-1-31,65.9,47.2,34.6,49.6,41.6,33.3,97,83,54,30.32,30.20,4,0,8,0.00
2013-2-1,69.8,48.2,34.2,49.0,41.3,33.1,97,80,43,30.23,30.14,3,0,7,0.01
2013-2-2,65.1,48.0,38.4,51.7,43.2,36.8,95,84,58,30.32,30.22,5,1,10,0.00
2013-2-3,64.5,47.9,37.5,50.8,43.9,36.5,97,87,60,30.27,30.15,3,0,7,0.00
2013-2-4,60.0,44.4,35.7,50.3,42.0,34.7,97,92,67,30.20,30.08,4,0,7,0.01
2013-2-5,60.3,48.1,43.2,49.7,43.2,40.0,94,84,66,30.17,30.06,7,2,16,0.00
2013-2-6,61.6,45.5,33.7,45.8,38.9,32.1,96,79,46,30.23,30.13,6,1,14,0.00
2013-2-7,55.0,44.6,34.4,46.0,38.9,33.0,96,82,48,30.19,30.02,6,1,18,0.17
2013-2-8,58.3,44.0,32.2,41.7,34.0,24.7,96,72,37,30.05,29.96,7,2,16,0.01
2013-2-9,62.2,47.1,32.5,38.1,29.1,23.1,84,52,28,30.13,30.02,10,2,21,0.00
2013-2-10,63.5,44.4,28.8,46.7,34.3,25.8,91,70,37,30.16,30.05,4,1,9,0.00
2013-2-11,70.9,50.4,35.9,40.4,31.4,25.3,88,52,23,30.26,30.11,7,1,15,0.00
2013-2-12,62.8,45.1,31.7,46.0,38.5,30.4,96,80,46,30.40,30.26,4,1,8,0.00
2013-2-13,67.7,46.4,32.8,48.0,39.2,31.4,96,79,38,30.38,30.23,4,0,8,0.00
2013-2-14,70.7,49.3,35.2,50.2,41.8,34.2,97,79,40,30.29,30.18,3,1,9,0.01
2013-2-15,72.1,51.2,37.6,47.8,41.0,35.3,95,72,36,30.31,30.24,4,1,8,0.00
2013-2-16,71.3,51.3,38.9,50.4,42.3,36.5,93,74,41,30.27,30.06,3,0,8,0.00
2013-2-17,68.6,47.4,35.0,47.1,39.3,32.2,96,76,42,30.09,29.99,5,1,11,0.00
2013-2-18,56.1,43.5,32.1,45.2,38.1,29.9,95,82,61,30.06,29.95,7,1,17,0.00
2013-2-19,49.5,41.5,31.7,42.5,36.0,29.1,95,81,55,29.99,29.77,7,1,17,0.52
2013-2-20,61.8,45.6,30.8,37.7,33.2,28.2,93,65,32,30.08,29.89,8,2,16,0.00
2013-2-21,62.2,48.1,34.3,40.0,33.8,25.7,87,61,26,30.20,30.08,8,3,21,0.00
2013-2-22,65.7,47.5,32.4,43.3,37.8,30.1,93,73,36,30.28,30.18,5,0,13,0.00
2013-2-23,60.2,49.3,39.8,43.7,35.1,27.0,90,61,29,30.29,30.17,9,2,21,0.00
2013-2-24,68.3,49.4,35.4,39.0,27.1,14.4,82,47,14,30.29,30.17,10,2,20,0.00
2013-2-25,70.0,48.0,33.2,45.4,37.4,30.3,92,70,31,30.30,30.18,8,1,16,0.00
2013-2-26,71.9,53.0,33.1,37.5,29.2,15.8,93,48,12,30.25,30.15,8,2,19,0.00
2013-2-27,72.0,51.2,32.8,44.0,37.1,28.8,88,62,31,30.38,30.23,6,1,12,0.00
2013-2-28,72.1,57.0,45.3,55.6,48.3,42.4,95,74,50,30.47,30.38,5,1,10,0.00
2013-3-1,74.8,55.0,40.4,54.5,47.7,39.4,97,80,45,30.45,30.25,3,0,8,0.00
2013-3-2,70.3,57.2,45.3,54.9,50.0,44.0,96,78,54,30.27,30.08,4,0,8,0.00
2013-3-3,66.1,53.6,39.3,51.1,45.8,37.7,94,77,48,30.11,30.02,6,1,16,0.00
2013-3-4,61.1,46.4,37.4,49.7,42.3,34.5,96,86,64,30.18,30.07,5,1,12,0.00
2013-3-5,55.5,45.2,33.3,46.2,40.1,32.0,96,83,64,30.10,29.84,8,2,19,0.17
2013-3-6,55.0,47.6,34.6,46.3,41.0,32.8,94,79,55,30.09,29.84,6,2,18,0.23
2013-3-7,55.6,45.1,33.3,43.1,37.2,31.8,96,76,53,30.03,29.89,3,0,7,0.00
2013-3-8,62.2,49.3,38.9,47.5,39.0,34.4,84,69,41,30.06,29.87,9,3,17,0.00
2013-3-9,70.7,52.3,34.1,44.1,38.3,29.1,95,64,22,30.32,30.06,8,2,16,0.00
2013-3-10,74.0,52.4,35.5,49.5,37.4,26.4,92,62,20,30.38,30.26,3,1,8,0.00
2013-3-11,74.9,51.4,34.5,49.7,39.4,31.3,92,67,31,30.29,30.11,4,0,8,0.00
2013-3-12,78.9,54.5,37.6,56.9,45.9,36.1,96,76,41,30.19,30.08,4,1,9,0.00
2013-3-13,81.0,57.3,39.8,56.9,48.3,38.5,97,76,41,30.19,30.07,4,0,8,0.00
2013-3-14,74.0,57.0,44.1,57.6,48.0,39.4,97,76,29,30.18,30.10,6,1,13,0.00
2013-3-15,66.6,47.3,40.5,51.4,42.4,38.4,94,84,57,30.16,30.12,3,0,7,0.00
2013-3-18,70.5,61.6,50.2,48.6,45.1,42.1,77,56,38,30.14,30.03,5,1,11,0.00
2013-3-19,64.2,51.4,41.1,47.9,43.2,38.0,94,76,43,30.16,30.08,5,1,12,0.06
2013-3-20,59.1,50.9,45.4,55.3,48.7,43.2,96,92,82,30.16,30.09,4,0,12,0.49
2013-3-21,66.3,50.9,36.1,47.0,42.3,34.5,96,75,46,30.15,30.02,6,2,14,0.01
2013-3-22,69.6,53.8,36.5,41.3,29.6,12.9,91,47,14,30.14,30.05,9,2,22,0.00
2013-3-23,46.3,39.7,37.7,35.6,34.0,31.9,86,80,57,30.11,30.11,3,0,10,0.00
2013-3-24,72.9,53.1,36.1,50.3,42.1,34.2,94,70,33,30.12,29.97,4,1,9,0.00
2013-3-25,63.3,47.6,34.9,48.1,41.2,33.6,97,80,43,30.05,29.95,6,1,14,0.00
2013-3-26,70.0,52.1,39.0,51.2,43.6,37.2,96,76,43,30.03,29.94,5,1,12,0.00
2013-3-27,61.9,51.7,42.5,52.7,46.5,39.8,94,83,67,30.04,29.97,4,1,10,0.00
2013-3-28,67.7,55.0,47.5,53.9,49.4,45.5,95,82,58,30.11,30.03,2,0,7,0.00
2013-3-29,77.8,58.4,41.9,57.1,49.9,40.8,97,77,40,30.12,30.02,4,1,11,0.00
2013-3-30,68.4,58.1,50.3,56.3,51.5,47.9,93,79,58,30.08,30.00,5,1,12,0.11
2013-3-31,65.0,55.9,48.9,56.4,51.9,47.6,97,87,66,30.10,30.01,4,1,12,0.17
2013-4-1,65.7,54.8,46.6,55.9,51.2,44.5,97,88,63,30.18,30.07,4,1,9,0.06
2013-4-2,72.0,54.4,41.2,57.6,48.0,40.0,97,81,45,30.21,30.10,5,1,11,0.00
2013-4-3,76.6,55.4,42.3,56.2,48.4,40.7,97,80,42,30.17,29.99,4,1,8,0.00
2013-4-4,62.4,54.0,48.7,56.5,51.5,46.5,96,91,80,30.14,30.01,4,1,11,1.20
2013-4-5,65.3,55.6,47.8,55.1,50.9,46.2,97,85,64,30.20,30.13,6,1,15,0.01
2013-4-6,69.0,55.9,50.0,57.0,50.9,47.5,95,84,56,30.21,30.14,6,1,16,0.02
2013-4-7,62.6,53.8,50.6,55.5,50.7,47.6,95,89,73,30.20,30.09,3,0,11,0.04
2013-4-8,69.4,56.2,43.8,40.4,34.2,17.4,77,49,14,29.99,29.83,12,6,28,0.00
2013-4-17,70.6,62.6,45.8,33.2,24.6,16.6,61,26,14,30.25,30.19,6,2,15,0.00
2013-4-18,77.8,61.9,44.4,47.3,36.5,26.1,74,41,21,30.27,30.18,6,1,15,0.00
2013-4-19,83.2,61.7,41.3,58.3,46.2,38.6,93,61,30,30.25,30.07,9,2,18,0.00
2013-4-20,81.7,63.2,44.6,54.1,44.8,37.4,86,55,24,30.12,29.98,6,1,17,0.00
2013-4-21,87.2,63.4,42.4,53.9,45.4,40.5,94,59,21,30.06,29.93,4,1,14,0.00
2013-4-22,91.6,68.2,46.8,55.4,42.9,27.4,87,49,11,29.98,29.84,7,1,17,0.00
2013-4-23,84.0,70.5,46.1,45.4,29.0,14.5,76,25,10,29.94,29.85,13,5,28,0.00
2013-4-24,71.2,48.2,38.6,51.9,42.9,36.8,96,84,49,29.98,29.86,4,-6,8,0.00
2013-4-25,68.0,54.2,43.1,51.7,47.1,40.9,94,78,55,30.15,29.98,6,1,12,0.00
2013-4-26,73.7,56.0,43.1,56.1,48.6,41.2,95,78,49,30.25,30.14,5,1,11,0.00
2013-4-27,84.7,57.8,42.9,60.3,48.8,41.0,96,76,40,30.25,30.08,4,0,8,0.00
2013-4-28,90.5,62.1,41.4,61.6,50.4,40.1,96,71,36,30.09,29.89,3,0,9,0.00
2013-4-29,90.8,69.8,49.2,56.5,50.6,46.5,92,56,26,29.91,29.76,8,2,19,0.00
2013-4-30,87.3,70.3,50.9,50.3,29.7,2.2,83,36,4,29.86,29.79,11,3,23,0.00
2013-5-1,89.5,73.4,53.5,40.8,20.5,7.9,54,17,7,30.08,29.85,12,4,25,0.00
2013-5-2,92.2,68.5,45.4,47.4,36.7,26.4,77,38,11,30.16,30.08,6,1,13,0.00
2013-5-3,92.4,68.1,45.9,47.9,40.0,31.6,72,40,19,30.08,29.80,4,1,11,0.00
2013-5-4,88.9,66.3,46.4,51.2,43.8,31.4,87,52,15,29.79,29.55,6,1,16,0.00
2013-5-5,62.3,55.3,48.8,49.9,47.9,45.7,91,77,61,29.75,29.63,4,1,16,0.00
2013-5-13,88.7,77.3,57.1,60.5,54.2,47.6,73,46,34,30.09,29.92,5,1,13,0.00
2013-5-14,89.7,64.9,47.5,56.3,49.3,44.3,91,61,28,29.98,29.87,3,1,9,0.00
2013-5-15,77.2,55.3,40.8,51.7,44.9,38.9,95,71,37,30.04,29.96,6,1,15,0.00
2013-5-16,70.9,59.9,49.0,55.4,49.3,44.3,86,68,54,30.02,29.96,8,2,20,0.00
2013-5-17,70.4,56.5,43.7,49.7,43.5,32.2,92,65,31,30.07,29.97,8,2,18,0.00
2013-5-18,82.3,62.6,41.2,52.6,46.1,38.9,95,60,28,30.14,30.05,8,2,20,0.00
2013-5-19,85.9,68.1,45.1,49.2,43.4,31.6,87,47,16,30.13,29.97,5,1,15,0.00
2013-5-20,89.1,74.5,51.2,49.7,40.5,29.4,78,35,13,30.01,29.89,6,2,15,0.00
2013-5-21,75.1,61.2,47.7,47.0,42.2,34.8,87,53,25,29.98,29.90,10,4,25,0.00
2013-5-22,68.7,55.8,42.4,42.7,34.3,22.1,64,46,21,30.05,29.90,9,4,22,0.00
2013-5-23,73.0,56.2,41.2,44.4,39.8,35.1,84,57,32,30.00,29.92,6,2,15,0.00
2013-5-24,74.2,58.7,43.9,45.8,41.9,38.0,82,57,31,30.01,29.91,8,1,19,0.00
2013-5-25,74.6,57.6,39.8,48.8,44.3,37.5,94,65,36,30.02,29.95,7,1,17,0.00
2013-5-26,71.5,59.2,46.0,52.9,48.3,43.8,94,69,50,30.11,30.02,8,2,23,0.00
2013-5-27,64.1,56.1,45.7,55.8,50.1,42.4,94,81,67,30.12,30.01,5,1,14,0.09
2013-5-28,74.8,62.6,54.8,58.3,54.3,50.9,95,76,50,30.01,29.92,7,2,18,0.01
2013-5-29,76.5,64.7,56.2,54.8,51.0,46.6,79,62,40,29.97,29.88,8,2,19,0.00
2013-5-30,83.7,65.3,46.6,50.0,44.8,36.5,87,52,21,29.99,29.91,6,2,17,0.00
2013-5-31,92.8,70.6,45.6,52.8,47.1,42.0,89,49,20,30.02,29.89,5,1,13,0.00
2013-6-1,95.5,73.6,50.1,55.7,48.5,41.7,85,47,17,29.93,29.75,6,2,15,0.00
2013-6-2,91.3,69.5,50.9,56.3,50.5,45.0,88,55,24,29.77,29.64,3,1,11,0.00
2013-6-3,73.3,60.1,46.6,56.0,51.1,45.0,96,74,51,29.88,29.73,9,3,18,0.00
2013-6-4,69.8,58.5,52.0,54.5,50.9,48.7,90,77,55,29.98,29.87,7,3,17,0.00
2013-6-5,78.3,60.3,51.6,58.1,51.7,48.6,91,75,48,30.01,29.90,6,2,15,0.00
2013-6-6,85.6,62.3,49.7,60.9,52.3,46.4,94,73,42,29.97,29.82,5,2,12,0.00
2013-6-7,100.1,68.7,48.7,64.6,52.8,46.4,94,65,20,29.89,29.70,5,1,13,0.00
2013-6-8,98.7,71.5,54.7,63.9,56.8,51.0,94,65,31,29.83,29.68,5,2,13,0.00
2013-6-9,69.3,60.1,55.0,55.6,53.2,51.3,90,78,60,29.90,29.82,6,2,17,0.00
2013-6-10,64.9,58.9,52.4,55.0,52.5,48.3,94,80,65,29.98,29.82,5,1,13,0.00
2013-6-11,82.1,65.1,50.9,59.0,53.6,48.2,92,69,43,30.00,29.87,4,1,11,0.00
2013-6-12,84.5,64.6,43.2,50.3,44.4,34.1,93,54,22,29.97,29.90,8,2,17,0.00
2013-6-13,85.0,67.5,46.8,49.1,43.1,34.9,76,45,18,30.09,29.97,4,1,12,0.00
2013-6-14,88.2,69.4,49.0,51.6,41.9,21.1,82,44,11,30.00,29.81,7,1,15,0.00
2013-6-15,85.2,61.7,44.4,56.2,49.2,42.5,95,67,31,29.98,29.84,5,1,11,0.00
2013-6-16,87.7,65.1,43.4,53.7,46.8,41.7,96,59,22,30.07,29.98,7,1,19,0.00
2013-6-17,79.7,64.1,49.1,55.2,49.7,44.5,87,62,39,30.07,29.99,7,2,18,0.00
2013-6-18,72.3,60.1,46.9,51.3,47.8,43.8,95,67,39,30.02,29.94,10,3,24,0.00
2013-6-19,76.1,63.5,45.8,49.0,46.2,41.6,87,56,32,30.06,29.98,10,3,22,0.00
2013-6-20,81.2,66.9,50.9,49.5,46.0,42.8,78,50,28,30.01,29.90,8,2,18,0.00
2013-6-21,86.9,66.9,45.2,52.1,46.4,37.0,91,54,19,29.99,29.88,6,1,16,0.00
2013-6-22,90.4,70.6,47.0,53.0,46.8,41.7,87,49,19,29.94,29.80,6,1,18,0.00
2013-6-23,72.4,62.7,52.8,60.3,55.1,48.1,90,77,56,29.88,29.81,6,1,15,0.00
2013-6-24,65.6,59.7,56.1,59.8,55.7,53.0,95,87,70,29.92,29.80,2,0,7,0.11
2013-6-25,67.0,61.8,57.7,64.5,60.2,56.0,96,94,89,30.00,29.90,2,0,9,0.98
2013-6-26,82.5,68.9,62.1,67.3,62.4,58.0,97,82,50,30.06,29.98,3,1,9,0.02
2013-6-27,92.6,73.3,54.6,66.1,60.1,53.0,96,68,29,30.08,29.99,6,1,13,0.00
2013-6-28,102.2,80.7,58.1,67.4,58.6,48.1,96,56,18,30.03,29.86,5,1,15,0.00
2013-6-29,105.5,82.5,57.6,64.7,57.6,48.9,89,49,18,29.91,29.76,6,1,14,0.00
2013-6-30,102.2,77.1,56.4,63.1,57.5,52.3,90,57,20,29.84,29.72,3,0,7,0.00
2013-7-1,104.3,75.3,54.4,65.3,58.9,52.1,94,63,25,29.84,29.78,4,0,9,0.00
2013-7-2,95.2,74.8,61.3,65.0,60.1,55.4,89,64,33,29.92,29.82,4,1,11,0.00
2013-7-3,99.3,75.1,56.5,67.1,59.5,53.9,92,63,34,29.92,29.75,7,1,16,0.00
2013-7-4,103.4,81.7,61.7,66.0,56.5,41.7,82,48,19,29.79,29.63,8,2,22,0.00
2013-7-5,77.9,67.2,53.2,57.4,52.3,43.1,87,61,29,29.76,29.66,5,1,17,0.00
2013-7-6,79.6,62.4,53.8,58.2,53.5,50.8,91,75,46,29.82,29.73,3,1,8,0.00
2013-7-7,88.5,64.0,49.6,58.7,52.6,47.7,94,71,33,29.87,29.77,5,1,12,0.00
2013-7-8,88.6,64.4,50.3,58.9,52.4,47.9,93,70,31,29.98,29.87,4,1,10,0.00
2013-7-9,99.4,70.5,47.6,57.6,51.1,45.5,96,59,17,30.04,29.91,4,1,12,0.00
2013-7-10,92.3,65.5,48.1,58.9,50.3,43.9,93,64,21,29.99,29.88,7,1,13,0.00
2013-7-11,83.9,61.6,49.7,57.4,50.8,47.4,92,72,36,29.96,29.84,5,1,12,0.00
2013-7-12,87.1,62.1,50.3,59.1,51.8,47.7,93,73,37,29.96,29.84,4,1,9,0.00
2013-7-13,91.0,65.2,45.1,59.0,51.1,43.8,96,66,30,29.97,29.88,3,1,10,0.00
2013-7-14,90.0,63.5,46.4,59.7,51.1,44.5,95,69,33,30.01,29.87,4,1,10,0.00
2013-7-15,74.8,57.0,49.1,55.7,50.2,46.9,93,80,49,29.94,29.83,6,2,14,0.00
2013-7-16,72.0,59.3,50.5,56.4,51.9,48.3,93,78,57,30.03,29.88,6,1,13,0.00
2013-7-17,86.6,63.1,47.9,61.5,53.2,46.3,96,74,39,30.11,30.01,5,1,11,0.00
2013-7-18,94.3,64.9,47.8,60.0,52.2,45.9,96,70,24,30.07,29.92,6,1,11,0.00
2013-7-19,96.1,66.9,47.8,61.6,53.6,45.9,95,68,27,29.96,29.80,4,1,10,0.00
2013-7-20,89.5,66.0,51.3,61.0,55.1,48.0,93,72,38,29.86,29.72,3,1,8,0.00
2013-7-21,88.5,65.9,48.0,60.0,53.1,46.1,95,68,32,29.89,29.75,4,1,10,0.00
2013-7-22,89.2,67.8,52.6,60.4,54.8,48.3,93,67,32,29.97,29.88,5,1,13,0.00
2013-7-23,84.9,70.4,60.8,58.2,53.7,45.2,79,58,30,30.00,29.93,4,1,11,0.00
2013-7-24,91.6,71.4,52.3,60.2,53.0,48.3,93,58,23,29.99,29.88,5,1,14,0.00
2013-7-25,90.0,67.5,52.4,60.2,53.6,49.5,91,65,36,30.02,29.92,6,1,13,0.00
2013-7-26,85.9,63.3,49.0,59.4,52.8,46.9,94,72,37,30.10,29.99,6,2,14,0.00
2013-7-27,83.0,62.9,52.2,59.5,53.5,49.8,92,75,43,30.04,29.84,6,2,14,0.00
2013-7-28,83.6,61.6,51.3,59.2,52.4,48.5,92,75,41,29.89,29.78,5,1,12,0.00
2013-7-29,80.6,60.3,52.0,57.1,52.1,49.5,91,77,43,30.03,29.85,6,1,15,0.00
2013-7-30,83.3,61.5,51.4,59.5,52.9,48.8,93,76,44,30.12,30.02,5,1,12,0.00
2013-7-31,84.1,63.0,51.2,58.2,52.4,48.2,94,72,38,30.10,29.96,4,1,11,0.00
2013-8-1,85.1,64.1,45.3,55.8,50.8,43.6,96,67,34,30.06,29.94,5,1,13,0.00
2013-8-2,88.1,65.0,46.1,57.7,51.5,44.5,96,67,30,29.99,29.87,5,1,11,0.00
2013-8-3,84.5,63.6,50.8,58.4,53.1,47.7,92,72,40,29.99,29.89,5,1,11,0.00
2013-8-4,82.6,60.1,48.9,58.1,51.5,47.0,94,76,42,30.02,29.93,5,1,12,0.00
2013-8-5,85.7,61.8,49.7,57.8,51.5,47.2,92,73,33,30.04,29.91,5,1,12,0.00
2013-8-6,77.1,60.5,50.4,55.8,51.8,47.9,92,76,45,30.06,29.97,6,1,13,0.00
2013-8-7,73.3,61.1,53.3,57.4,53.5,50.1,91,77,55,30.11,30.04,7,1,16,0.00
2013-8-8,78.6,62.7,51.8,58.9,54.2,49.3,91,76,50,30.05,29.94,5,1,13,0.00
2013-8-9,79.8,60.7,51.7,58.7,52.5,49.1,92,77,46,30.00,29.91,5,1,14,0.00
2013-8-10,81.2,63.5,52.9,59.6,54.8,50.4,93,76,45,30.05,29.98,5,1,12,0.00
2013-8-11,87.8,64.2,50.9,60.2,53.6,47.8,96,73,26,30.04,29.91,5,1,11,0.00
2013-8-12,89.9,63.3,48.3,60.0,52.1,46.4,95,72,27,30.01,29.91,4,1,10,0.00
2013-8-13,93.7,66.7,46.2,59.3,50.6,43.7,95,65,20,30.01,29.88,6,1,18,0.00
2013-8-14,94.2,68.5,47.0,57.7,52.5,45.0,95,63,24,29.98,29.86,5,0,14,0.00
2013-8-15,92.7,70.1,52.7,63.8,58.4,51.2,97,71,34,29.96,29.89,5,1,12,0.00
2013-8-16,91.7,70.7,54.5,64.6,57.3,53.1,96,68,31,29.98,29.91,7,1,17,0.00
2013-8-17,88.3,67.9,51.6,61.6,56.2,49.7,96,70,38,29.99,29.83,2,0,10,0.00
2013-8-18,100.9,73.3,56.0,64.5,58.0,54.3,95,65,27,29.90,29.76,4,0,10,0.00
2013-8-19,92.1,71.9,58.5,64.5,58.2,54.6,88,66,35,29.90,29.79,6,2,17,0.00
2013-8-20,91.0,67.5,57.5,63.8,57.7,55.0,92,74,38,29.90,29.79,6,2,18,0.00
2013-8-21,81.8,63.7,51.2,58.5,54.4,48.1,90,75,41,29.95,29.84,6,2,13,0.00
2013-8-22,77.0,61.1,50.2,56.8,52.8,47.4,93,76,45,29.99,29.88,5,2,15,0.00
2013-8-23,88.7,65.4,49.9,60.4,54.3,47.7,93,71,34,29.94,29.78,2,0,9,0.00
2013-8-24,84.7,66.8,48.6,58.0,54.3,46.9,96,68,38,29.89,29.82,6,1,16,0.00
2013-8-25,83.0,67.4,55.7,62.9,57.9,52.6,94,74,45,29.95,29.88,6,1,14,0.00
2013-8-26,84.9,67.6,53.9,60.4,55.8,50.2,90,70,34,30.02,29.88,6,1,15,0.00
2013-8-27,87.5,66.0,47.9,57.9,52.3,46.3,96,67,30,29.91,29.80,6,1,17,0.00
2013-8-28,87.3,65.2,50.6,62.8,56.1,49.1,96,77,40,29.94,29.84,5,1,14,0.00
2013-8-29,87.8,70.1,59.2,63.9,59.8,57.1,93,73,37,30.05,29.94,7,2,15,0.00
2013-8-30,93.6,72.8,55.6,64.1,57.2,50.1,97,65,27,30.04,29.89,7,1,14,0.00
2013-8-31,89.4,68.3,51.2,59.1,53.9,48.3,95,65,27,29.98,29.86,5,1,11,0.00
2013-9-1,85.2,68.3,53.6,59.6,55.3,50.9,92,67,35,29.94,29.85,7,1,16,0.00
2013-9-2,83.2,69.7,58.4,62.2,58.7,54.4,90,70,45,29.95,29.87,8,2,18,0.00
2013-9-3,80.4,66.3,52.1,57.5,53.9,49.3,92,68,36,29.99,29.90,7,1,17,0.00
2013-9-4,82.5,65.0,49.6,58.4,53.8,48.2,97,71,41,30.02,29.91,8,2,17,0.00
2013-9-5,83.0,67.1,49.1,57.0,52.5,47.4,96,64,33,30.00,29.92,7,2,18,0.00
2013-9-6,95.0,70.7,48.7,56.8,49.8,45.9,93,54,20,29.99,29.83,5,1,12,0.00
2013-9-7,99.0,73.1,50.3,52.7,47.3,42.7,84,47,15,29.89,29.79,5,1,15,0.00
2013-9-8,99.8,71.1,49.1,58.4,50.4,44.2,91,55,18,29.88,29.74,4,1,10,0.00
2013-9-9,101.9,71.5,50.1,57.8,50.3,42.4,90,55,15,29.82,29.67,6,1,13,0.00
2013-9-10,80.0,64.1,53.4,61.6,56.2,50.1,94,77,51,29.91,29.73,6,1,16,0.00
2013-9-11,75.9,65.6,61.5,60.3,57.9,56.5,88,77,57,30.00,29.91,6,1,13,0.00
2013-9-12,85.8,66.5,53.8,64.0,58.1,51.4,92,77,47,29.99,29.86,4,1,10,0.00
2013-9-13,89.5,65.3,52.9,61.2,54.9,50.1,95,74,28,29.91,29.73,4,0,10,0.00
2013-9-14,87.7,58.8,48.0,59.8,52.2,46.6,96,82,39,29.83,29.70,3,0,8,0.00
2013-9-15,82.1,61.0,46.5,58.2,52.7,45.1,96,78,41,29.86,29.77,5,1,15,0.00
2013-9-16,85.8,65.3,49.5,60.9,54.2,48.1,97,72,37,29.90,29.75,7,1,15,0.00
2013-9-17,80.8,64.4,48.4,55.8,51.0,46.6,95,66,38,29.88,29.80,7,2,17,0.00
2013-9-18,86.3,65.5,48.9,52.0,46.1,38.9,89,56,19,29.92,29.80,6,1,16,0.00
2013-9-19,91.6,66.2,44.7,51.5,41.4,25.0,89,49,15,29.87,29.74,6,1,14,0.00
2013-9-20,77.2,56.0,42.4,60.0,46.2,37.3,89,71,51,29.84,29.77,6,1,15,0.00
2013-9-21,68.8,60.5,53.0,61.1,55.6,50.1,96,85,60,29.90,29.80,6,1,16,0.59
2013-9-22,69.8,55.0,46.3,55.4,50.2,45.0,96,85,58,30.01,29.90,3,0,7,0.01
2013-9-23,65.6,56.3,53.6,55.0,50.8,49.8,87,82,67,30.04,29.99,2,0,6,0.00
2013-9-24,79.3,64.3,53.0,54.4,50.7,46.9,90,64,32,29.98,29.87,8,3,19,0.00
2013-9-25,73.0,60.6,48.3,47.7,45.1,38.4,87,59,29,29.94,29.81,7,2,18,0.00
2013-9-26,77.2,60.3,42.4,43.3,38.8,33.0,83,49,22,30.00,29.85,4,1,13,0.00
2013-9-27,81.3,67.2,49.6,38.6,34.2,29.0,61,31,16,30.10,30.00,8,2,17,0.00
2013-9-28,83.9,61.8,43.9,52.9,42.6,36.0,88,55,20,30.10,30.00,5,1,16,0.00
2013-9-29,74.3,62.2,53.8,61.5,56.9,50.1,93,83,62,30.11,30.06,4,0,13,0.07
2013-9-30,74.9,64.5,53.6,64.1,60.3,48.8,96,87,66,30.07,29.97,5,1,11,0.16
2013-10-1,78.1,60.1,45.1,53.9,48.8,43.2,95,70,37,30.02,29.91,4,1,10,0.00
2013-10-2,76.3,60.7,45.7,50.8,45.5,39.1,96,62,31,30.02,29.93,12,2,25,0.00
2013-10-3,75.0,62.0,46.4,41.6,33.2,23.4,72,40,15,30.09,29.97,11,4,31,0.00
2013-10-4,82.7,71.6,63.2,27.7,24.9,20.0,24,18,11,30.09,30.01,11,4,23,0.00
2013-10-5,86.3,68.0,50.0,40.3,29.1,18.4,52,26,11,30.20,30.09,6,1,15,0.00
2013-10-6,87.1,63.8,43.1,41.4,34.4,29.5,69,38,13,30.14,30.00,3,0,7,0.00
2013-10-7,85.7,63.2,44.3,42.1,33.2,19.3,70,38,9,30.00,29.86,6,0,13,0.00
2013-10-8,80.7,58.7,40.8,47.8,41.7,37.1,90,58,24,29.92,29.71,5,0,12,0.00
2013-10-9,73.6,59.4,44.2,44.9,41.4,35.5,87,54,32,29.76,29.63,7,1,16,0.00
2013-10-10,74.5,57.2,43.8,50.7,42.9,36.0,89,61,32,30.02,29.76,3,1,9,0.00
2013-10-11,75.3,51.9,37.6,49.1,42.4,36.0,96,74,36,30.11,29.98,3,0,8,0.00
2013-10-12,74.8,53.8,38.0,51.5,42.8,36.4,96,71,27,30.03,29.89,7,1,21,0.00
2013-10-13,78.0,57.0,42.4,48.5,41.7,34.5,90,63,21,30.03,29.93,4,1,10,0.00
2013-10-14,80.8,55.8,46.6,40.5,37.8,36.6,69,53,24,30.05,30.01,4,0,13,0.00
2013-10-15,85.1,59.7,40.6,43.5,32.7,21.6,77,44,10,30.06,29.96,5,1,12,0.00
2013-10-16,84.0,60.4,40.7,40.1,33.9,30.7,72,42,16,30.11,30.00,3,1,8,0.00
2013-10-17,49.6,45.7,42.8,35.8,32.8,31.9,67,61,54,30.07,30.06,0,0,1,0.00
2013-10-18,84.3,66.7,40.9,46.6,41.8,34.6,79,43,23,30.07,29.98,3,1,13,0.00
2013-10-19,86.8,61.1,40.6,45.8,40.5,36.2,87,54,20,30.09,29.99,2,0,6,0.00
2013-10-20,84.5,57.6,39.3,49.4,41.3,35.8,89,60,22,30.03,29.90,3,0,8,0.00
2013-10-21,80.0,52.4,37.1,52.2,44.2,35.6,96,78,34,30.04,29.92,2,0,7,0.00
2013-10-22,63.1,45.7,37.9,51.1,42.4,36.6,96,89,65,30.05,29.94,1,0,5,0.00
2013-10-23,82.0,52.5,37.3,52.9,44.3,36.0,97,78,34,30.00,29.89,2,0,7,0.01
2013-10-24,68.1,51.7,43.6,50.1,45.9,40.6,95,82,47,30.11,29.99,4,1,11,0.00
2013-10-25,77.3,54.0,39.1,51.7,45.6,37.8,96,77,40,30.19,30.09,3,0,8,0.00
2013-10-26,85.2,57.9,39.9,51.3,44.0,38.3,95,66,27,30.17,30.02,4,0,8,0.00
2013-10-27,63.0,49.4,36.9,49.8,43.3,35.1,96,81,58,30.04,29.63,10,1,22,0.00
2013-10-28,66.5,51.5,39.2,45.9,42.3,36.8,95,73,41,29.85,29.67,5,1,11,0.00
2013-10-29,65.3,52.5,42.2,47.7,44.9,39.7,92,77,51,30.07,29.85,3,0,9,0.00
2013-10-30,68.8,50.6,37.1,49.4,42.1,35.8,96,75,45,30.17,30.07,5,0,12,0.00
2013-10-31,76.2,53.2,37.9,48.3,42.2,36.0,96,71,34,30.20,30.08,2,0,7,0.00
2013-11-1,77.9,55.9,41.6,47.4,42.1,39.0,93,65,28,30.17,30.03,3,0,9,0.00
2013-11-2,76.1,56.9,41.9,51.9,43.6,38.1,89,64,32,30.04,29.89,6,1,13,0.00
2013-11-3,66.5,52.1,37.9,41.6,33.0,25.7,85,52,22,30.06,29.93,4,1,11,0.00
2013-11-4,71.9,55.4,36.9,35.8,29.2,19.8,84,43,14,30.09,29.93,9,3,21,0.00
2013-11-5,76.5,60.3,45.5,37.6,33.3,28.0,70,39,23,30.24,30.07,8,1,20,0.00
2013-11-6,73.9,56.0,43.8,40.4,37.3,34.7,72,52,25,30.28,30.18,3,0,9,0.00
2013-11-7,77.9,57.7,45.8,41.6,38.4,35.2,85,52,25,30.19,30.07,4,0,10,0.00
2013-11-8,76.1,53.7,38.6,51.6,42.4,33.3,96,69,36,30.10,29.96,4,0,11,0.00
2013-11-9,75.4,52.0,36.9,47.6,40.7,32.9,92,69,32,30.07,29.98,3,0,8,0.00
2013-11-10,70.1,51.5,39.8,51.2,45.0,37.9,96,81,48,30.14,30.04,4,1,9,0.00
2013-11-11,66.8,52.7,40.3,50.4,45.2,38.4,96,78,49,30.20,30.10,3,0,10,0.00
2013-11-12,71.2,57.7,47.1,48.2,45.5,41.9,84,65,39,30.30,30.16,4,1,11,0.00
2013-11-13,81.7,56.8,42.1,52.2,46.1,40.2,94,72,34,30.26,30.10,2,0,7,0.00
2013-11-14,66.0,52.1,42.0,53.5,45.5,32.7,96,80,41,30.12,29.87,7,1,19,0.00
2013-11-15,69.0,52.6,38.9,42.0,37.3,33.1,87,58,31,29.87,29.73,8,2,17,0.00
2013-11-16,68.1,52.1,37.2,49.3,41.7,33.4,91,70,40,29.93,29.78,6,1,14,0.00
2013-11-17,63.6,47.5,37.1,49.1,42.7,35.8,97,85,57,30.10,29.93,2,0,6,0.00
2013-11-18,60.8,48.0,36.7,47.4,42.9,35.4,97,84,59,30.18,30.09,3,0,9,0.01
2013-11-19,55.2,52.3,48.6,54.4,50.7,45.1,97,94,84,30.12,29.95,1,0,4,0.95
2013-11-20,59.4,54.9,49.3,57.2,53.6,48.2,97,95,85,29.95,29.86,2,0,6,0.44
2013-11-21,62.1,55.1,46.9,50.0,34.6,16.5,97,55,18,29.98,29.90,29,5,29,0.00
2013-11-22,72.3,68.1,64.2,11.2,6.3,0.5,12,9,6,30.00,29.92,26,6,26,0.00
2013-11-23,66.0,54.8,37.1,35.9,26.1,8.1,74,38,11,30.11,29.96,25,2,25,0.00
2013-11-24,64.3,46.0,33.0,44.3,35.9,28.6,91,70,39,30.27,30.11,8,0,8,0.00
2013-11-25,65.1,46.1,34.4,45.0,39.0,32.9,96,79,46,30.36,30.27,8,0,8,0.00
2013-11-26,64.6,47.0,36.7,43.8,39.1,35.1,96,77,43,30.30,30.07,8,0,8,0.00
2013-11-27,67.5,49.2,37.1,45.0,39.8,34.2,91,73,43,30.07,29.86,8,0,8,0.00
2013-11-28,72.2,50.7,39.0,45.3,40.7,36.1,92,72,36,30.09,29.89,7,0,7,0.00
2013-11-29,70.5,50.0,38.4,46.6,41.0,36.0,93,74,38,30.24,30.08,8,0,8,0.00
2013-11-30,70.2,50.0,39.4,47.7,42.2,37.3,94,77,44,30.30,30.20,5,0,6,0.00
2013-12-1,74.9,51.3,38.3,48.5,42.7,36.7,96,76,36,30.36,30.24,5,0,5,0.00
2013-12-2,66.0,51.8,38.3,52.0,45.0,36.8,96,80,52,30.25,29.97,10,1,15,0.00
2013-12-3,57.2,48.8,35.0,51.9,33.5,17.5,91,58,30,29.96,29.84,16,2,16,0.00
2013-12-4,53.8,40.4,26.1,25.4,21.3,16.9,85,49,29,30.11,29.95,9,1,18,0.00
2013-12-5,52.5,34.1,21.7,29.1,20.4,15.2,87,62,26,30.18,30.10,8,0,8,0.00
2013-12-6,47.9,36.2,23.1,44.8,30.7,21.0,96,82,50,30.21,29.92,13,1,13,0.63
2013-12-7,46.2,37.4,24.8,42.5,28.8,22.1,93,73,42,30.28,29.93,22,2,22,0.01
2013-12-8,50.1,31.7,23.2,29.8,23.3,17.3,93,74,36,30.34,30.25,6,0,6,0.00
2013-12-9,50.7,32.0,19.6,27.7,21.3,15.9,89,67,33,30.45,30.33,8,1,8,0.00
2013-12-10,53.2,34.6,22.8,30.0,24.9,18.4,86,70,36,30.45,30.24,8,0,8,0.00
2013-12-11,56.9,37.7,26.0,33.8,28.6,23.3,91,73,40,30.28,30.21,8,1,8,0.00
2013-12-12,61.1,39.3,26.9,36.1,30.2,24.3,91,73,37,30.30,30.19,6,0,6,0.00
2013-12-13,62.8,41.1,28.2,39.7,33.1,26.1,94,76,41,30.36,30.25,6,0,6,0.00
2013-12-14,60.3,42.1,31.2,41.0,34.8,29.2,95,78,46,30.43,30.33,6,0,7,0.00
2013-12-15,63.6,40.9,29.7,41.0,34.2,27.9,95,80,41,30.40,30.27,7,0,7,0.01
2013-12-16,65.6,44.8,32.3,43.6,36.1,29.9,94,75,41,30.27,30.15,6,1,8,0.00
2013-12-17,64.7,45.7,34.9,43.1,37.1,31.9,93,75,42,30.21,30.06,7,0,7,0.00
2013-12-18,64.5,48.8,37.7,45.0,39.9,34.1,92,74,41,30.06,29.74,13,1,13,0.00
2013-12-19,61.4,51.2,37.3,38.4,27.2,6.7,85,45,16,29.94,29.73,24,5,24,0.00
2013-12-20,69.2,46.9,30.4,32.8,22.9,7.6,64,41,17,30.03,29.92,14,1,16,0.00
2013-12-21,68.3,48.0,36.7,48.7,39.9,31.8,93,75,44,30.11,29.98,8,0,8,0.00
2013-12-22,63.9,46.1,34.9,44.3,38.1,33.6,96,77,41,30.32,30.11,8,0,8,0.00
2013-12-23,65.7,46.8,35.6,42.9,38.2,33.0,93,75,43,30.42,30.31,6,0,6,0.00
2013-12-24,70.0,48.2,38.1,45.0,39.6,35.3,93,75,38,30.36,30.22,7,0,7,0.00
2013-12-25,66.8,45.7,33.0,40.6,35.9,30.8,94,72,36,30.33,30.22,4,0,8,0.00
2013-12-26,67.2,45.5,32.9,38.7,34.0,29.3,90,67,34,30.28,30.19,7,0,7,0.00
2013-12-27,59.2,43.7,34.1,38.8,33.6,29.1,85,70,41,30.26,30.14,4,0,4,0.00
2013-12-28,69.5,48.2,30.1,39.0,31.1,17.5,91,59,17,30.17,30.04,20,1,20,0.00
2013-12-29,65.9,50.8,34.8,32.6,27.0,14.0,75,44,15,30.21,30.08,19,2,19,0.00
2013-12-30,55.7,39.1,33.3,34.6,29.0,26.4,82,68,41,30.28,30.19,7,0,7,0.00
2013-12-31,65.9,47.4,36.1,41.6,36.1,31.0,84,67,40,30.22,30.17,4,0,4,0.00
2014-1-1,65.3,45.1,31.8,38.5,33.3,27.8,88,66,34,30.23,30.15,6,0,6,0.00
2014-1-2,67.0,47.3,35.5,40.5,35.2,30.1,83,65,36,30.20,30.07,8,0,8,0.00